Regional Weather Roundup
Issued by NWS Mt. Holly, NJ

Home | Current Version | Previous Version | Text Only | Print | Product List | Glossary On
Versions: 1 2 3 4 5 6 7 8 9 10 11 12 13 14 15 16 17 18 19 20 21 22 23 24 25 26 27 28 29 30 31 32 33 34 35 36 37 38 39 40 41 42 43 44 45 46 47 48 49 50
000
ASUS41 KPHI 211112
RWRPHI

REGIONAL WEATHER ROUNDUP
NATIONAL WEATHER SERVICE MOUNT HOLLY NJ
700 AM EDT THU SEP 21 2017

NOTE:  "FAIR" INDICATES FEW OR NO CLOUDS BELOW 12,000 FEET WITH NO
SIGNIFICANT WEATHER AND/OR OBSTRUCTIONS TO VISIBILITY.

 * = STATION DOES NOT REPORT PRECIPITATION (E.G. RAIN, SNOW, ETC.)
        OR FOG.

NJZ015>026-211200-
SOUTHERN NEW JERSEY

CITY           SKY/WX    TMP DP  RH WIND       PRES   REMARKS
POMONA         CLOUDY    69  64  84 NW8       29.99R
WILDWOOD*      CLOUDY    72  66  81 MISG      30.01R
MILLVILLE      CLOUDY    70  67  90 NW6       30.02R
WRIGHTSTOWN    CLOUDY    67  64  87 W8        29.98R
MOUNT HOLLY      N/A    N/A N/A N/A MISG      30.01R
TRENTON        MOCLDY    67  63  87 NW6       30.01R

$$
NJZ001>014-211200-
NORTHERN NEW JERSEY

CITY           SKY/WX    TMP DP  RH WIND       PRES   REMARKS
SUSSEX         MOCLDY    62  61  96 CALM      30.04R
ANDOVER*         N/A     61  60  97 CALM      30.05R
MORRISTOWN     MOCLDY    70  63  78 NW6       30.01R
NEWARK         CLOUDY    73  63  70 N10       29.99R
TETERBORO      CLOUDY    70  64  81 NW3       29.98R
CALDWELL       MOCLDY    70  65  84 CALM      30.01R
ALLAIRE*       MOCLDY    68  64  87 NW9       30.00R
TOMS RIVER*    CLOUDY    69  64  84 NW9       30.00R

$$
PAZ043-044-047-054-055-060>062-066>071-211200-
EASTERN PENNSYLVANIA

CITY           SKY/WX    TMP DP  RH WIND       PRES   REMARKS
PHILADELPHIA   MOCLDY    73  62  68 N9        30.03R
NORTH PHILA    CLOUDY    70  63  78 N9        30.04R
BLUE BELL*     CLOUDY    64  63  94 CALM      30.05S
DOYLESTOWN     PTCLDY    67  62  84 N5        30.04R
QUAKERTOWN*    MOCLDY    63  63 100 CALM      30.06R
POTTSTOWN      CLOUDY    65  63  93 CALM      30.07R
LANCASTER      CLEAR     63  62  97 NW3       30.07R
COATESVILLE    PTCLDY    66  63  88 N6        30.07R
READING        CLEAR     63  63 100 CALM      30.05R
ALLENTOWN      MOCLDY    62  59  90 SW5       30.05R
MOUNT POCONO   CLOUDY    60  60 100 NW5       30.10R
HAZLETON         N/A     59  55  88 CALM      30.14S
LEHIGHTON      FAIR      55  55 100 CALM      30.08R
WILKES BARRE   PTCLDY    62  61  96 SW3       30.10R

$$
DEZALL-MDZ008-012-015-019-020-211200-
DELAWARE AND EASTERN MARYLAND

CITY           SKY/WX    TMP DP  RH WIND       PRES   REMARKS
WILMINGTON     CLOUDY    67  64  90 NW7       30.04R
DOVER          MOCLDY    66  66 100 NW3       30.01R
GEORGETOWN     PTCLDY    68  65  90 NW3       30.02R
EASTON         CLEAR     66  64  94 CALM      30.06R
ABERDEEN       PTCLDY    67  62  84 N5        30.05R
PATUXENT       PTCLDY    66  65  96 CALM      30.03R
OCEAN CITY     CLOUDY   N/A N/A N/A NW5       30.01R
WALLOPS ISLAND CLEAR     66  66 100 NW5       30.01R
CAMBRIDGE      CLEAR     64  64 100 CALM      30.02R FOG
SALISBURY      CLEAR     65  65 100 CALM      30.02R

$$
PAZ001-021-NYZ056-072-MDZ011-DCZ001-211200-
OTHER NEARBY LOCATIONS

CITY           SKY/WX    TMP DP  RH WIND       PRES   REMARKS
HARRISBURG     MOCLDY    66  63  90 N6        30.06R
STATE COLLEGE  PTCLDY    57  57 100 CALM      30.12R
WILLIAMSPORT   CLOUDY    63  62  97 NW3       30.09R FOG
BINGHAMTON     FOG       59  59 100 NW7       30.12R VSB 1/4
NEW YORK CITY  CLOUDY    71  64  78 VRB5      30.02R
BALTIMORE      PTCLDY    63  62  97 CALM      30.04R
WASHINGTON DC  PTCLDY    68  62  81 N7        30.05R

$$



USA.gov is the U.S. government's official web portal to all federal, state and local government web resources and services.